Location: Coopersdale
(40.3556°N, 78.9372°W)
Time: 06:34:21
(UTC+00:00)

Tiros 1 despin weight - Pass Details

Date: 23 June 2021
Orbit: 593 x 642 km, 48.2° (Epoch: 02 August)

Event Time Altitude Azimuth Distance (km) Brightness Sun altitude
Exits shadow 07:58:40 13° 163° (SSE) 1,759 ? -16.1°
Maximum altitude 08:00:38 16° 133° (SE) 1,560 ? -15.9°
Drops below altitude 10° 08:03:22 10° 94° (E) 1,926 ? -15.5°
Sets 08:06:22 0° 73° (ENE) 2,827 ? -15.2°
